Location: Newark
(45.4422°N, 16.2769°E)
Time: 05:02:39
(UTC+00:00)

Courier 1B Rocket - Pass Details

Date: 07 December 2019
Orbit: 920 x 1202 km, 28.2° (Epoch: 20 January)

Event Time Altitude Azimuth Distance (km) Brightness Sun altitude
Rises 07:33:05 0° 229° (SW) 3,643 8.0 9.1°
Reaches altitude 10° 07:36:59 10° 207° (SSW) 2,654 7.6 9.5°
Maximum altitude 07:40:24 15° 174° (S) 2,281 8.0 9.9°
Drops below altitude 10° 07:43:47 10° 141° (SE) 2,609 11.0 10.3°
Sets 07:47:33 0° 119° (ESE) 3,546 9.5 10.8°
